GW3919 Weather Reports


Display with metric or nautical units.
time (UTC)temp
F
wind
direction
speed
MPH
gust
MPH
rain 1hr
in
rain 24hr
in
rain mn
in
humidity
%
barometer
mb
20260903013700 86 320 2.0 4.0 0.00 0.31 0.31 71 1012.7
20260903013200 86 259 2.0 2.0 0.00 0.31 0.31 72 1012.6
20260903012658 86 271 2.0 4.0 0.00 0.31 0.31 72 1012.5
20260903012158 86 258 2.0 3.0 0.00 0.31 0.31 73 1012.4
20260903011652 86 271 0.0 3.0 0.00 0.31 0.31 74 1012.3
20260903011146 84 288 2.0 4.0 0.00 0.31 0.31 75 1012.4
20260903010641 81 254 0.0 2.0 0.00 0.31 0.31 86 1012.3
20260903010140 80 280 0.0 1.0 0.00 0.31 0.31 92 1011.9
20260903005635 79 240 0.0 1.0 0.00 0.31 0.31 96 1012.1
20260903005131 78 249 1.0 2.0 0.00 0.31 0.31 99 1012.2
20260903004631 79 262 1.0 2.0 0.00 0.31 0.31 99 1012.2
20260903004126 79 260 1.0 2.0 0.00 0.31 0.31 99 1012.1
20260903003621 80 242 1.0 2.0 0.00 0.31 0.31 99 1012.1
20260903003117 80 244 1.0 1.0 0.00 0.31 0.31 99 1012.0
20260903002612 80 260 0.0 1.0 0.00 0.31 0.31 99 1012.1
20260903002112 81 284 0.0 1.0 0.00 0.31 0.31 99 1012.1
20260903001607 81 250 1.0 1.0 0.00 0.31 0.31 99 1011.9
20260903001100 81 269 1.0 1.0 0.00 0.31 0.31 99 1011.9
20260903000556 80 264 1.0 2.0 0.00 0.31 0.31 99 1011.8
20260903000055 80 237 1.0 1.0 0.00 0.31 0.31 99 1011.8
20260902235549 80 267 2.0 2.0 0.00 0.31 0.31 99 1012.1
20260902235044 81 264 2.0 2.0 0.00 0.31 0.31 99 1011.9
20260902234539 80 273 0.0 2.0 0.00 0.31 0.31 99 1011.9
20260902234037 81 257 1.0 2.0 0.00 0.31 0.31 99 1011.9
20260902233532 81 295 1.0 2.0 0.00 0.31 0.31 99 1011.8
20260902233026 80 290 0.0 1.0 0.00 0.31 0.31 99 1011.9
20260902232526 80 193 0.0 1.0 0.00 0.31 0.31 99 1011.9
20260902232020 80 263 1.0 2.0 0.00 0.31 0.31 99 1011.9
20260902231515 80 261 0.0 1.0 0.00 0.31 0.31 99 1011.8
20260902231009 78 272 1.0 2.0 0.00 0.31 0.31 99 1011.8
20260902230509 78 274 1.0 2.0 0.00 0.31 0.31 99 1011.9
20260902230003 78 137 1.0 3.0 0.90 0.31 0.31 95 1011.8
20260902225458 78 56 3.0 6.0 1.79 0.31 0.31 92 1011.8
20260902224957 80 264 10.0 15.0 0.73 0.12 0.12 91 1013.5
20260902224450 88 263 5.0 12.0 0.02 0.00 0.00 75 1012.2
20260902223947 98 237 5.0 15.0 0.00 0.00 0.00 52 1011.6
20260902223442 100 254 4.0 5.0 0.00 0.00 0.00 45 1011.4
20260902222942 100 253 3.0 5.0 0.00 0.00 0.00 45 1011.4
20260902222440 102 287 2.0 6.0 0.00 0.00 0.00 43 1011.5
20260902221935 102 271 5.0 6.0 0.00 0.00 0.00 43 1011.5
20260902221434 101 286 2.0 6.0 0.00 0.00 0.00 44 1011.5
20260902220929 101 261 4.0 4.0 0.00 0.00 0.00 44 1011.5
20260902220429 101 236 3.0 5.0 0.00 0.00 0.00 44 1011.5
20260902215918 104 247 4.0 4.0 0.00 0.00 0.00 42 1011.6
20260902215414 104 290 5.0 5.0 0.00 0.00 0.00 43 1011.4
20260902214910 102 244 4.0 4.0 0.00 0.00 0.00 43 1011.5
20260902214408 101 264 3.0 5.0 0.00 0.00 0.00 44 1011.8
20260902213903 102 273 2.0 6.0 0.00 0.00 0.00 44 1011.9
20260902213400 102 175 4.0 7.0 0.00 0.00 0.00 43 1011.8
20260902212858 102 240 3.0 8.0 0.00 0.00 0.00 44 1011.9
20260902212354 102 248 2.0 5.0 0.00 0.00 0.00 43 1012.1
20260902211850 104 260 4.0 5.0 0.00 0.00 0.00 42 1012.2
20260902211346 102 266 3.0 6.0 0.00 0.00 0.00 42 1012.0
20260902210841 101 274 4.0 5.0 0.00 0.00 0.00 45 1012.0
20260902210335 101 279 3.0 7.0 0.00 0.00 0.00 44 1011.9
20260902205833 102 282 2.0 6.0 0.00 0.00 0.00 43 1012.0
20260902205328 102 258 6.0 6.0 0.00 0.00 0.00 44 1012.2
20260902204824 102 276 3.0 6.0 0.00 0.00 0.00 43 1012.3
20260902204318 102 261 2.0 5.0 0.00 0.00 0.00 44 1012.4
20260902203814 101 269 5.0 6.0 0.00 0.00 0.00 44 1012.5
20260902203309 101 273 4.0 6.0 0.00 0.00 0.00 44 1012.6
20260902202808 101 287 3.0 6.0 0.00 0.00 0.00 43 1012.6
20260902202306 102 253 6.0 9.0 0.00 0.00 0.00 43 1012.7
20260902201801 101 170 3.0 4.0 0.00 0.00 0.00 44 1012.8
20260902201300 103 264 2.0 4.0 0.00 0.00 0.00 42 1012.9
20260902200755 102 279 2.0 4.0 0.00 0.00 0.00 44 1012.9
20260902200251 100 300 2.0 4.0 0.00 0.00 0.00 45 1013.1
20260902195746 100 245 3.0 6.0 0.00 0.00 0.00 45 1013.2
20260902195245 101 272 3.0 7.0 0.00 0.00 0.00 45 1013.4
20260902194740 101 294 3.0 5.0 0.00 0.00 0.00 44 1013.1
20260902194235 101 268 5.0 5.0 0.00 0.00 0.00 44 1013.4
20260902193731 100 242 1.0 6.0 0.00 0.00 0.00 44 1013.3
20260902193226 101 314 5.0 5.0 0.00 0.00 0.00 44 1013.5
20260902192725 101 289 3.0 6.0 0.00 0.00 0.00 43 1013.5
20260902192224 101 275 3.0 6.0 0.00 0.00 0.00 43 1014.0
20260902191718 101 296 1.0 5.0 0.00 0.00 0.00 45 1014.0
20260902191213 100 266 2.0 5.0 0.00 0.00 0.00 44 1013.6
20260902190708 99 282 2.0 4.0 0.00 0.00 0.00 47 1013.8
20260902190203 100 261 2.0 4.0 0.00 0.00 0.00 45 1014.0
20260902185659 100 260 1.0 4.0 0.00 0.00 0.00 45 1014.1
20260902185155 99 229 2.0 5.0 0.00 0.00 0.00 46 1014.0
20260902184649 100 283 3.0 4.0 0.00 0.00 0.00 45 1014.1
20260902184144 99 276 3.0 8.0 0.00 0.00 0.00 47 1014.3
20260902183640 98 284 6.0 6.0 0.00 0.00 0.00 49 1014.4
20260902183137 98 272 4.0 7.0 0.00 0.00 0.00 49 1014.6
20260902182632 98 286 2.0 4.0 0.00 0.00 0.00 49 1014.7
20260902182130 97 266 1.0 5.0 0.00 0.00 0.00 49 1014.7
20260902181625 97 276 3.0 4.0 0.00 0.00 0.00 52 1014.9
20260902181124 97 216 2.0 5.0 0.00 0.00 0.00 52 1015.1
20260902180619 97 320 2.0 6.0 0.00 0.00 0.00 52 1015.1
20260902180116 97 255 2.0 4.0 0.00 0.00 0.00 52 1015.2
20260902175615 97 39 2.0 4.0 0.00 0.00 0.00 52 1015.4
20260902175110 97 257 4.0 8.0 0.00 0.00 0.00 53 1015.6
20260902174606 96 282 2.0 5.0 0.00 0.00 0.00 53 1015.4
20260902174101 97 256 2.0 4.0 0.00 0.00 0.00 53 1015.5
20260902173556 96 276 1.0 6.0 0.00 0.00 0.00 54 1015.6
20260902173051 96 269 4.0 5.0 0.00 0.00 0.00 52 1015.6
20260902172545 96 304 2.0 6.0 0.00 0.00 0.00 54 1015.7
20260902172040 96 287 4.0 4.0 0.00 0.00 0.00 54 1015.9
20260902171536 96 264 3.0 5.0 0.00 0.00 0.00 54 1016.0
20260902171031 95 282 2.0 6.0 0.00 0.00 0.00 56 1015.9
20260902170526 95 281 2.0 5.0 0.00 0.00 0.00 56 1016.0
20260902170022 95 255 4.0 5.0 0.00 0.00 0.00 56 1016.1
20260902165521 94 255 2.0 3.0 0.00 0.00 0.00 58 1016.3
20260902165016 95 239 4.0 11.0 0.00 0.00 0.00 57 1016.4
20260902164511 95 256 1.0 4.0 0.00 0.00 0.00 58 1016.4
20260902164010 93 277 1.0 3.0 0.00 0.00 0.00 59 1016.4
20260902163506 93 249 2.0 4.0 0.00 0.00 0.00 61 1016.5
20260902163004 92 315 0.0 3.0 0.00 0.00 0.00 62 1016.5
20260902162459 93 319 5.0 5.0 0.00 0.00 0.00 59 1016.6
20260902161959 93 275 3.0 6.0 0.00 0.00 0.00 59 1016.5
20260902161454 92 262 4.0 4.0 0.00 0.00 0.00 62 1016.5
20260902160949 93 248 3.0 5.0 0.00 0.00 0.00 60 1016.4
20260902160445 93 264 3.0 5.0 0.00 0.00 0.00 61 1016.5
20260902155942 93 23 0.0 2.0 0.00 0.00 0.00 60 1016.6
20260902155438 93 13 2.0 2.0 0.00 0.00 0.00 61 1016.5
20260902154931 91 289 3.0 4.0 0.00 0.00 0.00 63 1016.4
20260902154427 92 293 0.0 4.0 0.00 0.00 0.00 62 1016.6
20260902153927 91 267 4.0 5.0 0.00 0.00 0.00 62 1016.7
20260902153426 90 176 1.0 2.0 0.00 0.00 0.00 64 1016.5
20260902152921 91 294 2.0 5.0 0.00 0.00 0.00 63 1016.6
20260902152417 91 274 2.0 4.0 0.00 0.00 0.00 62 1016.5
20260902151913 91 249 4.0 6.0 0.00 0.00 0.00 63 1016.3
20260902151408 91 244 2.0 4.0 0.00 0.00 0.00 64 1016.3
20260902150902 92 262 2.0 5.0 0.00 0.00 0.00 63 1016.5
20260902150359 89 168 0.0 1.0 0.00 0.00 0.00 67 1016.4
20260902145858 89 314 2.0 3.0 0.00 0.00 0.00 66 1016.3
20260902145353 89 271 2.0 5.0 0.00 0.00 0.00 66 1016.4
20260902144848 89 268 1.0 4.0 0.00 0.00 0.00 66 1016.4
20260902144345 89 296 1.0 3.0 0.00 0.00 0.00 66 1016.4
20260902143839 90 230 0.0 3.0 0.00 0.00 0.00 66 1016.3
20260902143334 89 309 0.0 3.0 0.00 0.00 0.00 67 1016.4
20260902142830 88 257 2.0 3.0 0.00 0.00 0.00 68 1016.3
20260902142326 87 251 2.0 4.0 0.00 0.00 0.00 71 1016.4
20260902141821 86 311 2.0 2.0 0.00 0.00 0.00 73 1016.4
20260902141317 86 272 3.0 5.0 0.00 0.00 0.00 72 1016.2
20260902140816 87 296 2.0 3.0 0.00 0.00 0.00 71 1016.5
20260902140311 86 275 2.0 3.0 0.00 0.00 0.00 72 1016.3
20260902135810 86 279 3.0 3.0 0.00 0.00 0.00 73 1016.4
20260902135307 87 326 3.0 4.0 0.00 0.00 0.00 72 1016.4
20260902134805 87 252 0.0 3.0 0.00 0.00 0.00 71 1016.3
20260902134301 86 319 1.0 3.0 0.00 0.00 0.00 73 1016.2
20260902133756 86 254 2.0 2.0 0.00 0.00 0.00 73 1016.2
20260902133256 85 324 2.0 3.0 0.00 0.00 0.00 73 1016.1
20260902132751 85 307 3.0 4.0 0.00 0.00 0.00 74 1016.3
20260902132246 85 234 2.0 2.0 0.00 0.00 0.00 73 1016.2
20260902131742 85 308 3.0 4.0 0.00 0.00 0.00 73 1016.2
20260902131238 84 289 0.0 4.0 0.00 0.00 0.00 75 1016.1
20260902130737 84 299 2.0 4.0 0.00 0.00 0.00 75 1016.2
20260902130233 84 283 0.0 2.0 0.00 0.00 0.00 74 1016.3
20260902125728 83 213 2.0 4.0 0.00 0.00 0.00 74 1016.1
20260902125225 81 304 3.0 4.0 0.00 0.00 0.00 78 1016.2
20260902124720 80 322 2.0 2.0 0.00 0.00 0.00 80 1016.0
20260902124215 79 269 0.0 2.0 0.00 0.00 0.00 80 1015.9
20260902123710 79 245 1.0 2.0 0.00 0.00 0.00 82 1015.9
20260902123206 78 267 1.0 3.0 0.00 0.00 0.00 82 1015.9
20260902122700 78 147 0.0 1.0 0.00 0.00 0.00 82 1015.7
20260902122156 78 229 0.0 1.0 0.00 0.00 0.00 83 1015.9
20260902121650 78 272 1.0 1.0 0.00 0.00 0.00 83 1015.8
20260902121145 78 242 0.0 1.0 0.00 0.00 0.00 83 1015.8
20260902120641 78 256 0.0 2.0 0.00 0.00 0.00 83 1015.9
20260902120138 78 215 0.0 1.0 0.00 0.00 0.00 83 1015.9
20260902115637 78 251 0.0 1.0 0.00 0.00 0.00 83 1015.6
20260902115133 78 232 0.0 1.0 0.00 0.00 0.00 83 1015.7
20260902114629 78 173 0.0 1.0 0.00 0.00 0.00 84 1015.8
20260902114130 78 237 0.0 1.0 0.00 0.00 0.00 82 1015.8
20260902113625 78 352 0.0 1.0 0.00 0.00 0.00 82 1015.9
20260902113120 78 284 0.0 0.0 0.00 0.00 0.00 82 1015.9
20260902112614 78 242 0.0 1.0 0.00 0.00 0.00 82 1015.8
20260902112106 78 228 0.0 1.0 0.00 0.00 0.00 82 1015.8
20260902111602 78 235 0.0 1.0 0.00 0.00 0.00 82 1015.7
20260902111057 78 237 0.0 1.0 0.00 0.00 0.00 83 1015.8
20260902110553 78 218 0.0 1.0 0.00 0.00 0.00 81 1015.7
20260902110049 78 205 0.0 1.0 0.00 0.00 0.00 81 1015.9
20260902105544 78 269 0.0 1.0 0.00 0.00 0.00 81 1015.8
20260902105043 78 230 0.0 1.0 0.00 0.00 0.00 81 1015.7
20260902104539 79 237 0.0 1.0 0.00 0.00 0.00 80 1015.7
20260902104038 79 218 0.0 1.0 0.00 0.00 0.00 80 1015.6
20260902103534 79 255 0.0 1.0 0.00 0.00 0.00 80 1015.7
20260902103029 79 229 0.0 1.0 0.00 0.00 0.00 79 1015.8
20260902102526 79 237 0.0 1.0 0.00 0.00 0.00 79 1015.7
20260902102022 79 219 2.0 2.0 0.00 0.00 0.00 79 1015.6
20260902101517 79 217 0.0 0.0 0.00 0.00 0.00 79 1015.9
20260902101017 80 246 1.0 1.0 0.00 0.00 0.00 78 1015.7
20260902100512 80 224 0.0 1.0 0.00 0.00 0.00 78 1015.8
20260902100011 80 224 0.0 2.0 0.00 0.00 0.00 78 1015.7
20260902095511 80 180 0.0 1.0 0.00 0.00 0.00 78 1015.8
20260902095010 80 224 0.0 1.0 0.00 0.00 0.00 77 1015.7
20260902094506 80 276 0.0 1.0 0.00 0.00 0.00 77 1015.8
20260902094001 80 233 0.0 1.0 0.00 0.00 0.00 77 1015.7
20260902093456 80 206 0.0 1.0 0.00 0.00 0.00 76 1015.6
20260902092955 81 256 0.0 1.0 0.00 0.00 0.00 76 1015.8
20260902092451 81 230 0.0 1.0 0.00 0.00 0.00 76 1015.6
20260902091951 81 255 0.0 1.0 0.00 0.00 0.00 76 1015.5
20260902091446 81 224 0.0 0.0 0.00 0.00 0.00 75 1015.7
20260902090943 81 309 0.0 0.0 0.00 0.00 0.00 75 1015.6
20260902090438 81 129 0.0 0.0 0.00 0.00 0.00 74 1015.6
20260902085936 82 245 0.0 0.0 0.00 0.00 0.00 74 1015.5
20260902085432 82 217 0.0 1.0 0.00 0.00 0.00 74 1015.4
20260902084927 82 207 0.0 1.0 0.00 0.00 0.00 73 1015.3
20260902084423 82 251 0.0 1.0 0.00 0.00 0.00 73 1015.4
20260902083918 82 296 0.0 1.0 0.00 0.00 0.00 73 1015.5
20260902083413 82 262 0.0 1.0 0.00 0.00 0.00 73 1015.4
20260902082908 82 309 0.0 1.0 0.00 0.00 0.00 73 1015.6
20260902082403 82 297 0.0 0.0 0.00 0.00 0.00 72 1015.5
20260902081900 82 217 0.0 1.0 0.00 0.00 0.00 72 1015.4
20260902081355 82 304 0.0 0.0 0.00 0.00 0.00 72 1015.4
20260902080850 83 217 0.0 0.0 0.00 0.00 0.00 72 1015.3
20260902080347 83 306 0.0 2.0 0.00 0.00 0.00 71 1015.4
20260902075846 83 322 0.0 2.0 0.00 0.00 0.00 71 1015.5
20260902075343 83 230 0.0 2.0 0.00 0.00 0.00 71 1015.6
20260902074837 83 321 0.0 2.0 0.00 0.00 0.00 71 1015.5
20260902074333 83 296 2.0 2.0 0.00 0.00 0.00 70 1015.5
20260902073828 84 336 0.0 2.0 0.00 0.00 0.00 70 1015.6
20260902073324 84 309 0.0 1.0 0.00 0.00 0.00 70 1015.6
20260902072820 84 304 0.0 2.0 0.00 0.00 0.00 70 1015.3
20260902072315 84 333 0.0 2.0 0.00 0.00 0.00 70 1015.5
20260902071812 84 321 1.0 2.0 0.00 0.00 0.00 70 1015.6
20260902071311 84 323 2.0 3.0 0.00 0.00 0.00 69 1015.6
20260902070808 84 278 1.0 2.0 0.00 0.00 0.00 69 1015.5
20260902070308 84 285 1.0 3.0 0.00 0.00 0.00 69 1015.5
20260902065806 84 273 1.0 3.0 0.00 0.00 0.00 69 1015.5
20260902065301 85 321 2.0 3.0 0.00 0.00 0.00 69 1015.5
20260902064757 85 316 2.0 2.0 0.00 0.00 0.00 68 1015.5
20260902064253 85 298 2.0 3.0 0.00 0.00 0.00 68 1015.4
20260902063749 85 315 0.0 2.0 0.00 0.00 0.00 68 1015.5
20260902063243 85 286 2.0 2.0 0.00 0.00 0.00 68 1015.6
20260902062738 85 264 2.0 3.0 0.00 0.00 0.00 68 1015.5
20260902062232 85 321 0.0 3.0 0.00 0.00 0.00 68 1015.5
20260902061731 85 282 1.0 4.0 0.00 0.00 0.00 68 1015.4
20260902061227 85 296 2.0 3.0 0.00 0.00 0.00 69 1015.6
20260902060724 85 290 1.0 3.0 0.00 0.00 0.00 69 1015.4
20260902060219 85 356 2.0 3.0 0.00 0.00 0.00 69 1015.5
20260902055715 85 301 1.0 3.0 0.00 0.00 0.00 69 1015.4
20260902055211 85 295 1.0 5.0 0.00 0.00 0.00 70 1015.5
20260902054706 86 249 0.0 2.0 0.00 0.00 0.00 70 1015.5
20260902054201 86 249 1.0 3.0 0.00 0.00 0.00 70 1015.4
20260902053656 86 284 0.0 2.0 0.00 0.00 0.00 70 1015.5
20260902053151 86 296 2.0 3.0 0.00 0.00 0.00 70 1015.5
20260902052650 86 287 0.0 3.0 0.00 0.00 0.00 69 1015.5
20260902052146 86 256 0.0 3.0 0.00 0.00 0.00 69 1015.5
20260902051644 86 309 1.0 2.0 0.00 0.00 0.00 69 1015.4
20260902051139 86 285 2.0 4.0 0.00 0.00 0.00 69 1015.5
20260902050634 86 287 2.0 4.0 0.00 0.00 0.00 68 1015.3
20260902050129 87 298 2.0 3.0 0.00 0.00 0.00 68 1015.4
20260902045623 87 323 2.0 3.0 0.00 0.00 0.00 68 1015.3
20260902045115 87 333 0.0 3.0 0.00 0.00 0.00 68 1015.5
20260902044614 87 335 2.0 2.0 0.00 0.00 0.00 67 1015.3
20260902044111 87 249 2.0 3.0 0.00 0.00 0.00 67 1015.2
20260902043606 87 343 1.0 2.0 0.00 0.00 0.00 66 1015.5
20260902043106 87 254 2.0 4.0 0.00 0.00 0.00 66 1015.5
20260902042600 88 319 2.0 3.0 0.00 0.00 0.00 66 1015.1
20260902042055 88 321 2.0 4.0 0.00 0.00 0.00 65 1015.4
20260902041554 88 313 1.0 3.0 0.00 0.00 0.00 65 1015.3
20260902041050 88 295 2.0 4.0 0.00 0.00 0.00 64 1015.3
20260902040544 88 292 2.0 3.0 0.00 0.00 0.00 64 1015.4
20260902040038 89 314 4.0 4.0 0.00 0.00 0.00 63 1015.2
20260902035532 89 254 1.0 4.0 0.00 0.00 0.00 62 1015.3
20260902035027 89 294 3.0 5.0 0.00 0.00 0.00 61 1015.1
20260902034526 90 296 2.0 3.0 0.00 0.00 0.00 60 1015.0
20260902034025 90 296 3.0 6.0 0.00 0.00 0.00 59 1015.0
20260902033525 90 298 3.0 7.0 0.00 0.00 0.00 58 1015.0
20260902033020 89 269 1.0 2.0 0.00 0.00 0.00 60 1014.8
20260902032513 89 252 0.0 2.0 0.00 0.00 0.00 60 1014.7
20260902032008 89 235 1.0 1.0 0.00 0.00 0.00 60 1014.5
20260902031503 89 246 0.0 1.0 0.00 0.00 0.00 59 1014.5
20260902030959 89 255 0.0 1.0 0.00 0.00 0.00 59 1014.5
20260902030454 90 256 0.0 0.0 0.00 0.00 0.00 59 1014.4
20260902025952 90 284 0.0 1.0 0.00 0.00 0.00 58 1014.4
20260902025448 90 206 0.0 2.0 0.00 0.00 0.00 58 1014.4
20260902024943 91 269 0.0 2.0 0.00 0.00 0.00 57 1014.4
20260902024438 91 205 0.0 1.0 0.00 0.00 0.00 57 1014.3
20260902023933 91 301 0.0 2.0 0.00 0.00 0.00 56 1014.3
20260902023429 91 246 0.0 1.0 0.00 0.00 0.00 56 1014.2
20260902022928 91 240 0.0 3.0 0.00 0.00 0.00 56 1014.2
20260902022423 92 272 1.0 3.0 0.00 0.00 0.00 55 1014.0
20260902021920 91 266 1.0 2.0 0.00 0.00 0.00 56 1013.9
20260902021419 92 253 1.0 2.0 0.00 0.00 0.00 55 1013.9
20260902020915 92 239 1.0 2.0 0.00 0.00 0.00 55 1013.7
20260902020411 92 287 2.0 2.0 0.00 0.00 0.00 55 1013.6
20260902015906 92 240 0.0 1.0 0.00 0.00 0.00 54 1013.6
20260902015402 92 310 0.0 2.0 0.00 0.00 0.00 54 1013.5
20260902014857 92 281 2.0 2.0 0.00 0.00 0.00 54 1013.5
20260902014354 92 280 2.0 2.0 0.00 0.00 0.00 54 1013.7